www.pogodaiklimat.ru

Погода и климат >> Архив погоды >> Германия >> Киль


ПОГОДА в Киле

  • Прогноз погоды в Киле
  • Монитор погоды в Киле

АРХИВ ПОГОДЫ в Киле

Время (UTC), дата Ветер
(напр.,м/с)
 
Видим.   Явления Облачность Т
(С)
Тd
(С)
f
(%)
Тe
(С)
Тes
(С)
Комфортность P
(гПа)
Po
(гПа)
Тmin
(С)
Tmax
(С)
R
(мм)
R24
(мм)
S
(см)
07 11.07 Ю 3-5
{5}
15 км 10/10 900 м
[]
+15.3 +10.0 71 +15 +15 1013.7 1010.4
08 11.07 Ю 3-5
{6}
17 км 10/0 2000 м
[]
+16.3 +10.5 69 +16 +20 1013.6 1010.3
09 11.07 ЮЗ 3 14 км 10/10 800 м
[]
+19.3 +11.9 62 +21 +21 комфорт 1013.3 1010.0
10 11.07 ЮЗ 3-7
{7}
17 км 9/9 720 м
[]
+18.4 +12.0 66 +19 +20 1013.1 1009.8
11 11.07 ЮЗ 3-5
{8}
26 км 10/10 800 м
[]
+18.3 +12.0 67 +19 +19 1012.8 1009.5
12 11.07 ЮЗ 3-5
{8}
27 км 9/9 720 м
[]
+18.2 +12.7 70 +19 +20 1012.7 1009.4
13 11.07 З 3-5
{5}
9000 м морось {дождь} 9/9 600 м
[]
+16.9 +13.6 81 +17 +18 1012.7 1009.4
14 11.07 ЮЗ 2-3
{5}
3600 м морось {дождь} 9/9 210 м
[]
+16.3 +14.8 91 +16 +17 1012.6 1009.3
15 11.07 ЮВ 2-3
{5}
14 км в посл. час дождь {морось} 9/9 1500 м
[]
+16.4 +14.5 89 +16 +17 1012.1 1008.8 0.4
16 11.07 ЮВ 1-2
{3}
13 км в посл. час дождь {морось} 9/9 1500 м
[]
+17.1 +14.4 84 +18 +19 1011.8 1008.5
17 11.07 ЮВ 1-2
{2}
17 км 10/10 1320 м
[]
+17.9 +15.0 83 +19 +19 1011.6 1008.3
18 11.07 В 1 20 км {дождь, морось} 5/0
[]
+17.8 +14.8 83 +19 +20 1011.3 1008.0 +14.5 +19.7 0.2
19 11.07 ЮВ 1-2
{2}
16 км 9/9 1000 м
[]
+17.6 +14.9 84 +19 +19 1011.3 1008.0
20 11.07 ЮВ 1-2
{2}
13 км 10/10 1500 м
[]
+17.1 +14.3 84 +18 +18 1011.3 1008.0
21 11.07 Ю 1-1
{2}
8000 м слаб. дождь 9/9 1500 м
[]
+16.6 +14.7 89 +17 +17 1011.3 1008.0 0.0
22 11.07 З 2-2
{3}
4800 м слаб. дождь {морось} 9/0 2000 м
[]
+16.1 +15.1 94 +16 +16 1011.3 1008.0
23 11.07 Ю 1-1
{2}
4200 м слаб. дождь {морось} 10/10 720 м
[]
+16.0 +15.3 96 +17 +17 1011.1 1007.8
00 12.07 Ю 1-2
{3}
4500 м слаб. дождь {морось} 10/10 960 м
[]
+15.8 +15.3 97 +16 +16 1010.7 1007.4 0.5
01 12.07 Ю 1-2
{2}
2700 м в посл. час дождь {морось} 10/10 90 м
[]
+15.8 +15.5 98 +16 +16 1010.4 1007.1
02 12.07 ЮВ 1-2
{2}
2500 м в посл. час дождь {морось} 10/10 120 м
[]
+15.8 +15.4 97 +16 +16 1010.1 1006.8
03 12.07 Ю 2-3
{3}
3600 м в посл. час дождь {морось} 10/10 150 м
[]
+15.7 +15.1 96 +16 +16 1009.9 1006.6 0.1
04 12.07 Ю 1-1
{4}
4100 м дымка 10/10 150 м
[]
+15.7 +15.1 96 +16 +16 1009.8 1006.5
05 12.07 Ю 1-2
{3}
6000 м дымка 10/10 180 м
[]
+15.8 +14.7 93 +16 +16 1009.7 1006.4
06 12.07 Ю 2 15 км {дождь, морось} 10/0
[]
+15.9 +14.0 88 +16 +18 1009.7 1006.4 +15.6 +17.8
07 12.07 ЮЗ 2-4
{4}
28 км 10/10 300 м
[]
+17.1 +14.3 84 +17 +17 1009.8 1006.5
08 12.07 ЮЗ 2-4
{4}
11 км 10/10 360 м
[]
+18.0 +14.4 79 +19 +19 1009.9 1006.6
09 12.07 Ю 1 13 км 10/10 480 м
[]
+18.9 +14.1 74 +21 +21 комфорт 1009.5 1006.2
10 12.07 З 2-3
{4}
7000 м слаб. морось {дождь} 9/9 400 м
[]
+17.4 +15.9 91 +18 +19 1009.6 1006.3
11 12.07 СЗ 1-1
{3}
6000 м слаб. морось {дождь} 9/9 330 м
[]
+18.2 +15.6 85 +20 +21 1009.7 1006.4
12 12.07 В 3-4
{4}
6000 м слаб. дождь {морось} 9/9 240 м
[]
+17.3 +15.6 90 +17 +19 1009.6 1006.3 2
13 12.07 В 3-4
{5}
10 км в посл. час дождь {морось} 9/9 600 м
[]
+18.2 +15.7 85 +19 +20 1009.5 1006.2
14 12.07 СВ 3-4
{5}
12 км в посл. час дождь {морось} 3/0
[]
+19.0 +15.1 78 +20 +28 1009.5 1006.2
15 12.07 В 2-4
{5}
20 км {дождь, морось} 4/4 570 м
[]
+19.3 +14.3 73 +21 +26 комфорт 1009.3 1006.0 0.0
16 12.07 Ю 1-2
{3}
29 км 8/8 750 м
[]
+19.5 +15.2 76 +22 +24 комфорт 1009.2 1005.9
17 12.07 З 2-2
{3}
21 км в посл. час дождь 9/9 630 м
[]
+18.9 +15.9 83 +21 +21 комфорт 1009.4 1006.1
18 12.07 СВ 1 5000 м сильн. дождь {морось} 8/8 1140 м
[]
+17.7 +15.0 84 +19 +19 1009.8 1006.5 +15.9 +20.2 0.8
19 12.07 СЗ 1-1
{3}
10 км в посл. час дождь {морось} 9/9 1500 м
[]
+17.6 +16.3 92 +19 +19 1010.1 1006.8
20 12.07 СВ 2-2
{2}
6000 м дымка 10/0
[]
+17.4 +16.3 93 +18 +18 1010.4 1007.1
21 12.07 В 1-2
{3}
6000 м дымка {дождь} 5/0
[]
+16.6 +15.6 94 +17 +17 1010.8 1007.5 3
22 12.07 С 2-2
{2}
4300 м в посл. час туман {дымка} 10/0
[]
+14.7 +14.3 97 +14 +14 1011.0 1007.7
23 12.07 С 2-2
{2}
1800 м в посл. час туман {дымка} 10/0
[]
+14.4 +14.1 98 +14 +14 1011.3 1008.0
00 13.07 СЗ 2-2
{3}
2300 м дымка {дождь} 10/10 1300 м
[]
+14.9 +14.6 98 +15 +15 1011.4 1008.1
01 13.07 С 2-3
{3}
2400 м дымка 9/0
[]
+14.3 +14.0 98 +14 +14 1011.4 1008.1
02 13.07 С 3-4
{4}
2900 м дымка 10/10 1500 м
[]
+15.8 +15.3 97 +15 +15 1011.6 1008.3
03 13.07 СЗ 2-2
{4}
2700 м дымка 10/10 1500 м
[]
+15.1 +14.7 97 +15 +15 1011.7 1008.4
04 13.07 С 1-2
{3}
3400 м дымка 9/9 1500 м
[]
+15.6 +15.2 97 +16 +16 1012.0 1008.7
05 13.07 С 2-3
{3}
4000 м дымка 10/0
[]
+16.4 +15.7 96 +16 +17 1012.4 1009.1
06 13.07 С 3 8000 м 4/4 210 м
[]
+17.9 +16.0 89 +18 +20 1012.8 1009.5 +14.0 +17.9
07 13.07 С 3-4
{5}
14 км 10/10 330 м
[]
+18.6 +15.7 83 +20 +20 1013.3 1010.0
08 13.07 С 4-5
{5}
14 км 10/10 330 м
[]
+18.2 +15.1 82 +18 +18 1013.7 1010.4
09 13.07 С 4-6
{6}
11 км 10/0 2000 м
[]
+19.2 +15.0 77 +21 +25 комфорт 1014.0 1010.7
10 13.07 С 3-5
{5}
18 км 9/0 2000 м
[]
+18.9 +14.1 74 +20 +27 1014.4 1011.1
11 13.07 С 3-4
{5}
18 км 10/0 2000 м
[]
+20.0 +14.7 72 +23 +29 комфорт 1014.5 1011.2
12 13.07 С 3-5
{6}
19 км 9/9 800 м
[]
+20.5 +14.4 68 +23 +25 комфорт 1014.4 1011.1
13 13.07 СЗ 4-7
{7}
24 км 9/9 750 м
[]
+20.7 +14.9 69 +24 +25 комфорт 1014.5 1011.2
14 13.07 СЗ 6-8
{9}
15 км 3/3 700 м
[]
+20.0 +14.3 70 +22 +25 комфорт 1014.6 1011.3
15 13.07 СЗ 6-7
{9}
17 км 6/6 630 м
[]
+19.9 +14.3 70 +22 +23 комфорт 1014.8 1011.5
16 13.07 З 5-8
{9}
17 км в посл. час морось 9/9 700 м
[]
+20.0 +14.1 69 +22 +22 комфорт 1014.6 1011.3
17 13.07 З 5-8
{8}
27 км 10/10 800 м
[]
+18.9 +13.5 71 +20 +20 1014.5 1011.2
18 13.07 З 5 30 км {морось} 10/10 750 м
[]
+18.3 +13.1 72 +18 +18 1014.9 1011.6 +18.0 +22.3 0.0
19 13.07 З 5-7
{9}
30 км 10/10 660 м
[]
+16.5 +11.9 74 +16 +16 1015.7 1012.4
20 13.07 З 5-7
{8}
35 км 10/10 630 м
[]
+15.8 +11.3 75 +15 +15 1016.1 1012.8
21 13.07 З 4-5
{9}
45 км 10/10 600 м
[]
+15.3 +11.0 76 +14 +14 1016.3 1013.0
22 13.07 СЗ 4-5
{5}
27 км 10/10 570 м
[]
+14.9 +10.8 76 +14 +14 1016.6 1013.2
00 14.07 З 3-5
{9}
23 км 10/10 500 м
[]
+14.1 +10.9 81 +13 +13 1016.5 1013.1
01 14.07 З 4-5
{6}
20 км 10/10 500 м
[]
+13.7 +11.3 85 +12 +12 1016.5 1013.1
02 14.07 З 3-4
{5}
17 км 10/10 630 м
[]
+13.4 +11.3 87 +12 +12 1016.4 1013.0
03 14.07 З 2-3
{6}
16 км 10/10 660 м
[]
+13.3 +11.5 89 +13 +13 1016.3 1012.9
04 14.07 З 3-4
{4}
16 км 10/10 630 м
[]
+13.2 +11.4 89 +12 +12 1016.4 1013.0
05 14.07 З 4-5
{5}
9000 м слаб. морось 10/10 270 м
[]
+13.0 +11.6 91 +11 +11 1016.5 1013.1
06 14.07 З 3 7000 м слаб. морось 10/10 270 м
[]
+13.1 +11.5 90 +12 +12 1016.7 1013.3 +13.0 +18.3 0.0
07 14.07 З 3-4
{4}
23 км в посл. час морось 10/10 400 м
[]
+13.9 +11.1 83 +13 +13 1017.0 1013.6
08 14.07 З 3-4
{5}
30 км в посл. час морось 10/10 570 м
[]
+14.2 +10.6 79 +13 +13 1017.2 1013.8
09 14.07 З 3-5
{5}
30 км в посл. час морось 10/10 570 м
[]
+14.7 +10.9 78 +14 +14 1017.4 1014.0 0.0
10 14.07 З 3-4
{6}
27 км в посл. час морось 10/10 570 м
[]
+14.9 +10.8 76 +14 +14 1017.5 1014.1
11 14.07 З 4-6
{6}
24 км в посл. час морось 10/10 540 м
[]
+14.9 +10.9 77 +14 +14 1017.6 1014.2
12 14.07 З 4-6
{6}
24 км в посл. час морось 10/10 570 м
[]
+15.4 +11.2 76 +14 +14 1017.7 1014.4 0.0
13 14.07 З 3-6
{7}
35 км в посл. час морось 10/10 630 м
[]
+15.7 +11.6 77 +15 +15 1017.6 1014.3
14 14.07 З 5-7
{7}
40 км в посл. час морось 10/10 570 м
[]
+15.8 +11.8 77 +15 +15 1017.4 1014.1
15 14.07 З 4-6
{8}
35 км {морось} 10/10 600 м
[]
+16.0 +11.7 76 +15 +15 1017.3 1014.0 0.0
16 14.07 З 4-8
{8}
35 км 10/10 600 м
[]
+15.5 +11.6 78 +15 +15 1017.0 1013.7
17 14.07 З 3-6
{8}
30 км в посл. час морось 10/10 570 м
[]
+15.3 +11.8 80 +15 +15 1017.0 1013.7
18 14.07 З 4 28 км в посл. час морось 10/10 540 м
[]
+14.8 +11.8 82 +14 +14 1017.0 1013.6 +13.1 +16.4 0.0
19 14.07 З 5-7
{7}
23 км 10/10 500 м
[]
+14.5 +11.2 81 +13 +13 1017.0 1013.6
20 14.07 З 3-5
{6}
22 км 10/10 480 м
[]
+14.2 +11.2 82 +13 +13 1017.3 1013.9
21 14.07 З 3-4
{7}
21 км 10/10 570 м
[]
+14.0 +11.0 82 +13 +13 1017.4 1014.0
22 14.07 З 3-4
{5}
26 км 9/9 630 м
[]
+13.6 +10.3 80 +12 +12 1017.3 1013.9
23 14.07 З 4-5
{6}
24 км 10/10 600 м
[]
+13.2 +9.5 78 +12 +12 1017.4 1014.0
00 15.07 З 3-4
{7}
24 км 10/10 540 м
[]
+13.1 +9.5 79 +12 +12 1017.1 1013.7
01 15.07 З 3-4
{6}
26 км 10/10 570 м
[]
+12.8 +9.3 79 +11 +11 1016.9 1013.5
02 15.07 З 4-6
{6}
26 км 10/10 600 м
[]
+12.6 +8.8 78 +11 +11 1016.8 1013.4
03 15.07 З 3-5
{6}
28 км 10/10 630 м
[]
+12.6 +8.7 77 +11 +11 1016.5 1013.1
04 15.07 З 4-5
{5}
30 км 10/10 630 м
[]
+12.6 +8.8 78 +11 +11 1016.4 1013.0
05 15.07 З 3-5
{6}
29 км 10/10 660 м
[]
+12.8 +8.7 76 +11 +11 1016.2 1012.8
06 15.07 З 3 27 км 10/10 660 м
[]
+13.1 +9.0 76 +12 +12 1016.2 1012.8 +12.5 +14.9
07 15.07 З 5-8
{8}
20 км 10/10 660 м
[]
+13.5 +8.8 73 +12 +12 1016.0 1012.6
08 15.07 З 7-10
{10}
28 км 10/10 700 м
[]
+14.1 +8.6 69 +12 +12 1016.0 1012.6
09 15.07 З 6-9
{10}
24 км 10/10 720 м
[]
+14.1 +8.4 69 +12 +12 1016.0 1012.6
10 15.07 З 7-10
{10}
15 км 10/10 800 м
[]
+15.3 +8.9 66 +14 +14 1015.6 1012.3
11 15.07 З 6-9
{10}
17 км 9/9 800 м
[]
+15.5 +9.1 66 +14 +15 1015.5 1012.2
12 15.07 З 7-11
{11}
21 км 10/10 870 м
[]
+15.8 +9.0 64 +14 +14 1015.3 1012.0
13 15.07 З 7-12
{13}
19 км 9/9 840 м
[]
+15.5 +9.2 66 +14 +14 1015.3 1012.0
14 15.07 З 6-12
{12}
23 км 10/10 840 м
[]
+15.8 +9.8 67 +14 +14 1015.0 1011.7
15 15.07 З 7-10
{13}
14 км 10/10 840 м
[]
+16.5 +10.3 67 +15 +15 1014.6 1011.3
16 15.07 З 8-13
{13}
23 км 9/9 870 м
[]
+16.2 +10.2 68 +15 +15 1014.4 1011.1
17 15.07 З 7-11
{12}
30 км 10/10 720 м
[]
+15.5 +10.9 74 +14 +14 1014.3 1011.0
18 15.07 З 5 25 км 10/10 660 м
[]
+15.2 +11.1 77 +14 +14 1014.2 1010.9 +13.1 +16.9
19 15.07 З 6-8
{10}
29 км 9/9 630 м
[]
+14.8 +10.8 77 +13 +13 1014.2 1010.9
20 15.07 З 5-8
{9}
24 км 10/10 630 м
[]
+14.5 +11.0 80 +13 +13 1014.3 1011.0
21 15.07 З 4-6
{10}
25 км 10/10 570 м
[]
+14.4 +11.2 81 +13 +13 1014.3 1011.0
22 15.07 З 6-8
{9}
27 км 10/10 500 м
[]
+14.0 +10.6 80 +12 +12 1014.3 1010.9
23 15.07 З 6-8
{9}
26 км 10/10 500 м
[]
+13.9 +10.7 81 +12 +12 1014.3 1010.9
00 16.07 З 5-7
{10}
28 км 10/10 450 м
[]
+13.8 +10.9 83 +12 +12 1014.3 1010.9
01 16.07 СЗ 5-8
{8}
30 км 10/10 420 м
[]
+13.8 +10.9 83 +12 +12 1014.3 1010.9
02 16.07 З 5-7
{8}
30 км 10/10 400 м
[]
+13.7 +11.1 84 +12 +12 1014.3 1010.9
03 16.07 СЗ 5-9
{9}
45 км в посл. час морось 10/10 400 м
[]
+13.6 +11.1 85 +12 +12 1013.9 1010.5 0.0
04 16.07 СЗ 4-5
{8}
21 км слаб. морось 10/10 270 м
[]
+13.3 +12.0 92 +12 +12 1013.9 1010.5
05 16.07 З 4-6
{7}
7000 м слаб. морось 10/10 210 м
[]
+13.3 +12.5 95 +12 +12 1013.8 1010.4
06 16.07 З 5 35 км в посл. час дождь {морось} 10/10 240 м
[]
+14.1 +12.3 89 +12 +12 1013.5 1010.2 +13.2 +15.2 0.0
07 16.07 З 6-9
{11}
30 км в посл. час морось 10/10 360 м
[]
+15.0 +12.2 83 +13 +13 1013.6 1010.3
08 16.07 З 6-10
{11}
26 км 10/10 480 м
[]
+16.3 +12.3 77 +15 +15 1013.5 1010.2
09 16.07 З 7 15 км {морось} 9/9 570 м
[]
+16.8 +11.7 72 +16 +16 1013.6 1010.3 0.0
10 16.07 З 6-10
{11}
14 км 9/9 660 м
[]
+17.5 +11.7 69 +17 +17 1013.6 1010.3
11 16.07 З 7-11
{11}
20 км 6/6 750 м
[]
+19.4 +12.0 62 +20 +22 1013.5 1010.2
12 16.07 З 7-10
{12}
9000 м {морось} 5/5 870 м
[]
+18.8 +11.3 62 +19 +21 1013.7 1010.4
13 16.07 З 6-9
{11}
24 км 8/8 960 м
[]
+19.7 +11.8 60 +21 +22 комфорт 1013.8 1010.5
14 16.07 З 7-11
{11}
17 км 5/5 1020 м
[]
+20.6 +12.1 58 +22 +24 комфорт 1014.0 1010.7
15 16.07 З 4-8
{11}
20 км 6/6 1020 м
[]
+20.5 +12.6 60 +23 +25 комфорт 1013.9 1010.6
17 16.07 З 6-9
{10}
14 км ясно +18.8 +12.3 66 +19 +20 1014.2 1010.9
18 16.07 З 6-9
{11}
23 км ясно +17.2 +11.9 71 +16 +17 1014.3 1011.0 +13.9 +21.3
19 16.07 З 4-6
{10}
28 км ясно +15.7 +11.7 77 +15 +15 1014.8 1011.5
20 16.07 З 5-7
{7}
21 км ясно +14.2 +11.0 81 +12 +12 1015.2 1011.8
21 16.07 З 4-6
{10}
19 км 8/8 400 м
[]
+13.3 +10.8 85 +12 +12 1015.5 1012.1
22 16.07 З 3-5
{6}
21 км 9/9 360 м
[]
+13.1 +10.9 86 +12 +12 1015.7 1012.3
23 16.07 З 5-6
{6}
19 км 9/9 330 м
[]
+12.7 +10.7 88 +10 +10 1015.7 1012.3
00 17.07 З 4-6
{10}
20 км 10/10 300 м
[]
+12.9 +10.7 86 +11 +11 1015.7 1012.3
01 17.07 З 5-7
{7}
22 км 10/10 400 м
[]
+12.9 +10.7 86 +11 +11 1015.5 1012.1
02 17.07 З 3-5
{6}
18 км 10/10 270 м
[]
+12.8 +10.8 88 +11 +11 1015.4 1012.0
03 17.07 З 2-3
{7}
11 км 10/10 210 м
[]
+12.7 +11.3 91 +12 +12 1015.4 1012.0
04 17.07 З 2-3
{3}
2600 м дымка 10/10 150 м
[]
+12.5 +12.1 97 +11 +11 1015.5 1012.1
05 17.07 З 2-3
{3}
2400 м дымка 10/10 90 м
[]
+12.8 +12.5 98 +12 +12 1015.3 1011.9
06 17.07 З 2 9000 м в посл. час морось {дымка} 10/10 150 м
[]
+13.1 +12.2 94 +12 +12 1015.3 1011.9 +12.4 +17.3 0.0
07 17.07 З 2-3
{3}
22 км 10/10 240 м
[]
+13.7 +11.9 89 +13 +13 1015.4 1012.0
08 17.07 З 2-3
{3}
29 км 10/10 330 м
[]
+14.6 +11.6 82 +14 +14 1015.5 1012.1
09 17.07 З 2 17 км 9/9 450 м
[]
+15.3 +11.8 80 +15 +16 1015.5 1012.2
10 17.07 З 1-2
{3}
21 км 9/9 570 м
[]
+15.7 +11.4 76 +16 +18 1015.6 1012.3
11 17.07 З 1-2
{3}
35 км 9/9 570 м
[]
+16.2 +11.8 75 +17 +19 1015.7 1012.4
12 17.07 З 2-2
{4}
30 км 5/5 570 м
[]
+16.8 +12.0 73 +17 +25 1015.5 1012.2
13 17.07 З 2-5
{6}
19 км 3/3 570 м
[]
+18.4 +12.4 68 +19 +29 1015.2 1011.9
14 17.07 ЮЗ 2-5
{5}
20 км 1/1 630 м
[]
+18.9 +11.9 64 +20 +30 1015.2 1011.9
15 17.07 З 2-4
{6}
13 км ясно +19.8 +12.5 63 +22 +30 комфорт 1014.7 1011.4
16 17.07 З 3-5
{6}
16 км ясно +19.2 +12.2 64 +21 +25 комфорт 1014.4 1011.1
17 17.07 ЮЗ 1-3
{4}
21 км ясно +20.3 +12.2 60 +23 +26 комфорт 1014.0 1010.7
18 17.07 З 2-3
{6}
30 км ясно +20.0 +12.7 63 +22 +23 комфорт 1013.9 1010.6 +13.0 +20.8
19 17.07 З 2-2
{2}
28 км ясно +18.6 +13.0 70 +20 +20 1014.0 1010.7
21 17.07 штиль 0-1
{2}
16 км ясно +13.9 +12.2 89 +13 +13 1014.0 1010.6
22 17.07 З 1-2
{5}
11 км ясно +13.3 +12.5 95 +13 +13 1014.2 1010.8
00 18.07 штиль 0-1
{5}
7000 м дымка ясно +12.1 +11.6 97 +11 +11 1013.9 1010.5
01 18.07 З 1-1
{1}
100 м туман {дымка} 1/1 <50 м
[]
+11.5 +11.4 99 +11 +11 1013.8 1010.4
02 18.07 штиль 0-1
{1}
500 м туман 5/5 <50 м
[]
+10.8 +10.6 99 +10 +10 1013.6 1010.2
03 18.07 З 1-1
{1}
1300 м в посл. час туман {дымка} ясно +10.4 +10.3 99 +10 +10 1013.3 1009.9
05 18.07 ЮВ 1-2
{2}
6000 м дымка ясно +13.8 +13.4 97 +14 +15 1013.1 1009.8
06 18.07 ЮВ 1 10 км {туман, дымка} ясно +15.7 +13.0 84 +16 +20 1013.0 1009.7 +9.5 +20.2

 

Местоположение метеостанции Киль (Германия): широта 54.38 долгота 10.15 высота над уровнем моря 31 м.

В архиве по умолчанию представлена погода в Киле за последнюю неделю. Архивные данные за месяц целиком и за предыдущие месяцы, начиная с января 2011 года, Вы можете получить, выбрав интересующий диапазон дат из раскрывающегося списка и нажав кнопку "Ввод!".


*Определитесь, кто Вы:
робот инопланетянин человек

Внимание! Время в таблицах - всемирное. Для получения местного времени необходимо прибавить поправку, которая равна 1 ч.

Смотрите также архив погоды в соседних городах и на ближайших метеорологических станциях:

Погода в Киль маяке (Германия) (16 км)
Погода в Дёрнике (Германия) (27 км)
Погода в Ольпенице (Германия) (33 км)
Погода в Хоне (Германия) (41 км)
Погода в Шлезвиг аэропорту (Германия) (42 км)
Погода в Шлезвиге (Германия) (42 км)
Погода на Мысе Kegnaes (Дания) (53 км)
Погода в Пельцерхакене (Германия) (58 км)
Погода в Итцехоэ (Германия) (58 км)
Погода в Вестермаркельсдорфе (Германия) (62 км)

Пояснения к столбцам:

Ветер - указаны скорость ветра в м/с - средняя за 10 мин, порывы в срок и между сроками (в фигурных скобках) и направление, откуда дует ветер: С - северный, СВ - северо-восточный, В - восточный, ЮВ - юго-восточный, Ю - южный, ЮЗ - юго-западный, З - западный, СЗ - северо-западный.
Видимость - горизонтальная дальность видимости в метрах или километрах. При видимости от 1 до 10 км при отсутствии осадков обычно наблюдается дымка, при ухудшении видимости до 1 км и менее - туман. В сухую погоду видимость может ухудшаться дымом, пылью или мглою.
Явления - указаны атмосферные явления, наблюдавшиеся в срок или в последний час перед сроком; фигурными скобками обозначены явления, наблюдавшиеся между сроками (за 1-3 часа до срока); квадратными скобками обозначены град или гололедные отложения с указанием их диаметра в мм.
Облачность - указаны через наклонную черту общая и нижняя облачность в баллах и высота нижней границы облаков в метрах; квадратными скобками обозначены формы облаков: Ci - перистые, Cs - перисто-слоистые, Cc - перисто-кучевые, Ac - высококучевые, As - высокослоистые, Sc - слоисто-кучевые, Ns - слоисто-дождевые, Cu - кучевые, Cb - кучево-дождевые. Подробнее классификацию облаков см. в Атласе облаков (PDF).
T - Температура воздуха - температура, измеренная на высоте 2 м над землей.
Td - Температура точки росы - температура, при понижении до которой содержащийся в воздухе водяной пар достигнет насыщения.
f - Относительная влажность воздуха - влажноcть воздуха, измеренная на высоте 2 м над землей.
Te - Эффективная температура - температура, которую ощущает одетый по сезону человек в тени. Характеристика душности погоды. При расчете учитывается влияние влажности воздуха и скорости ветра на теплоощущения человека.
Tes - Эффективная температура на солнце - температура, которую ощущает человек, с поправкой на солнечный нагрев. Характеристика знойности погоды. Зависит от высоты солнца над горизонтом, облачности и скорости ветра. Ночью, в пасмурную погоду, а также при ветре 12 м/с и более поправка равна нулю.
P - Атмосферное давление - приведенное к уровню моря атмосферное давление.
Po - Атмосферное давление - измеренное на уровне метеостанции атмосферное давление.
Tmin - Минимальная температура - минимум температуры воздуха на высоте 2 м над землей.
Tmax - Максимальная температура - максимум температуры воздуха на высоте 2 м над землей.
R - Количество осадков - Количество выпавших осадков за период времени, мм. При наведении курсора мыши на число - период времени, за который выпало указанное количество осадков.
R24 - Количество осадков - Количество выпавших осадков за 24 часа, мм.
S - Снежный покров - Высота снежного покрова, см. При наведении курсора мыши на число - состояние снежного покрова и степень покрытия местности в баллах.